Location: ?
(35.4554°N, 139.3092°E)
Time: 22:54:17
(UTC+00:00)

DELTA 2 R/B (1) - Pass Details

Date: 21 April 2021
Orbit: 790 x 803 km, 39.6° (Epoch: 10 May)

Event Time Altitude Azimuth Distance (km) Brightness Sun altitude
Exits shadow 17:30:11 50° 328° (NNW) 997 4.0 -27.9°
Maximum altitude 17:31:03 56° 3° (N) 935 4.0 -27.8°
Drops below altitude 10° 17:36:31 10° 81° (E) 2,354 6.7 -27.0°
Sets 17:39:03 0° 86° (E) 3,285 7.6 -26.6°
